Date String (YYYY-MM-DD hh:mm:ss) UTC,Instrument flags,Ambient pressure (hPa),Sample flow (lpm),Bypass flow (lpm),Sample temperature (°C),Ambient temperature (°C),ASC tube jacket temperature (°C),LED temperature (°C),Box temperature (°C),Sample RH (%),Span deviation,Mass concentration (μg/m³),Mass concentration (μg/m³),Mass concentration (μg/m³)
DateTimeUTC,F1_M11,P_M11,Q1_M11,Q2_M11,T1_M11,T2_M11,T3_M11,T4_M11,T5_M11,U1_M11,ZSPAN_M11,X0_M11,X2_M11,X1_M11
2022-12-28 22:00:00,,0809.5,5.00,0.00,25.4,24.1,00.0,34.3,27.2,16.2,0000.0,0009.89,0005.20,0004.90
2022-12-28 22:01:00,,0809.5,5.00,0.00,25.4,24.1,00.0,34.3,27.2,16.2,0000.0,0009.94,0005.25,0004.96
2022-12-28 22:02:00,,0809.5,5.01,0.00,25.4,24.1,00.0,34.3,27.2,16.3,0000.0,0009.70,0005.30,0005.02
2022-12-28 22:03:00,,0809.5,5.00,0.00,25.4,24.1,00.0,34.3,27.1,16.2,0000.0,0009.88,0005.37,0005.08
2022-12-28 22:04:00,,0809.5,5.00,0.00,25.4,24.0,00.0,34.3,27.1,16.1,0000.0,0010.05,0005.45,0005.14
2022-12-28 22:05:00,,0809.6,5.00,0.00,25.4,24.0,00.0,34.3,27.2,16.1,0000.0,0010.10,0005.48,0005.17
2022-12-28 22:06:00,,0809.6,4.99,0.00,25.4,24.0,00.0,34.3,27.2,16.2,0000.0,0010.82,0005.49,0005.17
2022-12-28 22:07:00,,0809.6,5.00,0.00,25.4,24.0,00.0,34.3,27.2,16.2,0000.0,0010.65,0005.56,0005.19
2022-12-28 22:08:00,,0809.5,4.99,0.00,25.4,24.0,00.0,34.3,27.2,16.1,0000.0,0010.58,0005.57,0005.20
2022-12-28 22:09:00,,0809.6,5.00,0.00,25.4,24.0,00.0,34.3,27.2,16.2,0000.0,0010.83,0005.59,0005.21
2022-12-28 22:10:00,,0809.6,5.00,0.00,25.4,24.0,00.0,34.3,27.2,16.4,0000.0,0011.06,0005.62,0005.21
2022-12-28 22:11:00,,0809.5,5.00,0.00,25.4,24.0,00.0,34.3,27.2,16.7,0000.0,0010.80,0005.64,0005.21
2022-12-28 22:12:00,,0809.6,5.00,0.00,25.4,24.1,00.0,34.3,27.2,16.7,0000.0,0011.03,0005.68,0005.22
2022-12-28 22:13:00,,0809.6,5.00,0.00,25.4,24.1,00.0,34.3,27.2,16.3,0000.0,0010.96,0005.67,0005.20
2022-12-28 22:14:00,,0809.6,5.00,0.00,25.4,24.1,00.0,34.3,27.2,15.8,0000.0,0010.42,0005.57,0005.11
2022-12-28 22:15:00,,0809.7,5.00,0.00,25.4,24.1,00.0,34.3,27.2,16.1,0000.0,0010.30,0005.53,0005.09
2022-12-28 22:16:00,,0809.6,5.00,0.00,25.5,24.1,00.0,34.3,27.2,16.6,0000.0,0010.52,0005.55,0005.10
2022-12-28 22:17:00,,0809.7,4.99,0.00,25.5,24.1,00.0,34.3,27.3,16.9,0000.0,0010.01,0005.57,0005.12
2022-12-28 22:18:00,,0809.7,5.00,0.00,25.5,24.1,00.0,34.3,27.2,16.7,0000.0,0009.77,0005.50,0005.11
2022-12-28 22:19:00,,0809.8,4.99,0.00,25.5,24.1,00.0,34.3,27.2,16.6,0000.0,0010.05,0005.49,0005.11
2022-12-28 22:20:00,,0809.8,5.00,0.00,25.5,24.1,00.0,34.3,27.3,16.4,0000.0,0009.59,0005.48,0005.11
2022-12-28 22:21:00,,0809.8,5.01,0.00,25.5,24.1,00.0,34.3,27.3,16.3,0000.0,0009.35,0005.44,0005.10
2022-12-28 22:22:00,,0809.7,5.00,0.00,25.5,24.1,00.0,34.3,27.3,16.4,0000.0,0009.30,0005.42,0005.08
2022-12-28 22:23:00,,0809.7,5.00,0.00,25.5,24.1,00.0,34.3,27.3,16.1,0000.0,0009.25,0005.36,0005.03
2022-12-28 22:24:00,,0809.7,4.99,0.00,25.5,24.1,00.0,34.3,27.3,16.0,0000.0,0009.17,0005.34,0005.01
2022-12-28 22:25:00,,0809.7,4.99,0.00,25.5,24.1,00.0,34.3,27.3,16.1,0000.0,0009.35,0005.43,0005.08
2022-12-28 22:26:00,,0809.7,5.00,0.00,25.5,24.1,00.0,34.3,27.3,16.1,0000.0,0009.62,0005.45,0005.06
2022-12-28 22:27:00,,0809.7,5.01,0.00,25.5,24.1,00.0,34.3,27.4,16.0,0000.0,0009.44,0005.41,0005.03
2022-12-28 22:28:00,,0809.7,5.01,0.00,25.5,24.1,00.0,34.3,27.3,16.1,0000.0,0009.36,0005.37,0004.98
2022-12-28 22:29:00,,0809.8,5.00,0.00,25.5,24.1,00.0,34.3,27.3,16.2,0000.0,0009.13,0005.35,0004.96
2022-12-28 22:30:00,,0809.8,4.99,0.00,25.5,24.1,00.0,34.3,27.3,16.4,0000.0,0008.72,0005.31,0004.93
2022-12-28 22:31:00,,0809.9,5.01,0.00,25.5,24.2,00.0,34.3,27.3,16.5,0000.0,0008.73,0005.28,0004.90
2022-12-28 22:32:00,,0810.0,5.00,0.00,25.5,24.2,00.0,34.3,27.3,16.5,0000.0,0008.74,0005.25,0004.87
2022-12-28 22:33:00,,0809.9,5.00,0.00,25.5,24.2,00.0,34.3,27.3,16.0,0000.0,0008.86,0005.12,0004.79
2022-12-28 22:34:00,,0810.0,5.00,0.00,25.5,24.2,00.0,34.3,27.4,15.9,0000.0,0008.71,0005.02,0004.71
2022-12-28 22:35:00,,0810.0,5.01,0.00,25.5,24.2,00.0,34.4,27.4,16.0,0000.0,0008.73,0004.99,0004.66
2022-12-28 22:36:00,,0809.9,5.00,0.00,25.5,24.2,00.0,34.4,27.4,15.8,0000.0,0008.58,0004.87,0004.55
2022-12-28 22:37:00,,0809.9,5.00,0.00,25.5,24.2,00.0,34.4,27.4,15.5,0000.0,0008.21,0004.71,0004.43
2022-12-28 22:38:00,,0809.9,5.00,0.00,25.5,24.1,00.0,34.4,27.4,15.7,0000.0,0008.06,0004.58,0004.32
2022-12-28 22:39:00,,0809.9,5.00,0.00,25.5,24.1,00.0,34.4,27.4,15.4,0000.0,0007.94,0004.44,0004.20
2022-12-28 22:40:00,,0809.9,5.00,0.00,25.5,24.1,00.0,34.4,27.3,15.3,0000.0,0007.84,0004.29,0004.05
2022-12-28 22:41:00,,0810.0,5.00,0.00,25.5,24.2,00.0,34.4,27.3,15.3,0000.0,0007.74,0004.16,0003.88
2022-12-28 22:42:00,,0809.9,5.00,0.00,25.5,24.2,00.0,34.4,27.4,15.3,0000.0,0007.56,0004.01,0003.74
2022-12-28 22:43:00,,0809.9,5.00,0.00,25.5,24.2,00.0,34.4,27.4,15.4,0000.0,0007.41,0003.86,0003.58
2022-12-28 22:44:00,,0809.9,5.00,0.00,25.5,24.2,00.0,34.4,27.3,15.6,0000.0,0006.89,0003.75,0003.48
2022-12-28 22:45:00,,0809.9,5.00,0.00,25.5,24.2,00.0,34.4,27.4,15.4,0000.0,0006.69,0003.68,0003.39
2022-12-28 22:46:00,,0809.9,5.00,0.00,25.5,24.2,00.0,34.4,27.4,15.4,0000.0,0006.38,0003.54,0003.28
2022-12-28 22:47:00,,0809.9,4.99,0.00,25.5,24.2,00.0,34.4,27.4,15.3,0000.0,0006.11,0003.44,0003.20
2022-12-28 22:48:00,,0809.9,5.01,0.00,25.5,24.2,00.0,34.4,27.4,15.3,0000.0,0006.12,0003.41,0003.14
2022-12-28 22:49:00,,0809.9,5.00,0.00,25.5,24.2,00.0,34.4,27.4,15.4,0000.0,0005.99,0003.34,0003.05
2022-12-28 22:50:00,,0809.9,5.00,0.00,25.6,24.2,00.0,34.4,27.4,15.5,0000.0,0006.09,0003.26,0002.93
2022-12-28 22:51:00,,0809.9,5.00,0.00,25.6,24.2,00.0,34.4,27.4,15.7,0000.0,0007.86,0003.22,0002.86
2022-12-28 22:52:00,,0810.0,5.00,0.00,25.6,24.2,00.0,34.4,27.4,15.6,0000.0,0008.55,0003.15,0002.79
2022-12-28 22:53:00,,0810.0,5.00,0.00,25.6,24.2,00.0,34.4,27.4,15.6,0000.0,0008.47,0003.09,0002.73
2022-12-28 22:54:00,,0810.0,4.99,0.00,25.6,24.2,00.0,34.4,27.4,15.6,0000.0,0008.35,0003.05,0002.67
2022-12-28 22:55:00,,0810.0,5.00,0.00,25.6,24.3,00.0,34.4,27.4,15.5,0000.0,0008.33,0003.04,0002.63
2022-12-28 22:56:00,,0810.1,5.00,0.00,25.6,24.3,00.0,34.4,27.4,15.5,0000.0,0008.17,0003.08,0002.60
2022-12-28 22:57:00,,0810.1,5.00,0.00,25.6,24.3,00.0,34.4,27.4,15.5,0000.0,0007.87,0003.02,0002.56
2022-12-28 22:58:00,,0810.1,5.00,0.00,25.6,24.3,00.0,34.4,27.4,15.5,0000.0,0007.88,0002.97,0002.51
2022-12-28 22:59:00,,0810.1,5.00,0.00,25.6,24.3,00.0,34.4,27.4,15.6,0000.0,0007.82,0002.91,0002.48
